Location: St. Louis
(38.6270°N, 90.1994°W)
Time: 08:18:43
(UTC-06:00)

Transit 2A - Pass Details

Date: 03 December 2021
Orbit: 591 x 967 km, 66.7° (Epoch: 20 January)

Event Time Altitude Azimuth Distance (km) Brightness Sun altitude
Rises 06:55:44 0° 344° (NNW) 3,653 9.1 -1.9°
Reaches altitude 10° 07:00:31 10° 16° (NNE) 2,711 8.7 -1.1°
Maximum altitude 07:02:38 12° 35° (NE) 2,584 8.8 -0.7°
Drops below altitude 10° 07:04:43 10° 55° (NE) 2,689 9.2 -0.3°
Sets 07:09:23 0° 86° (E) 3,582 10.6 0.5°
